Ottumwa, IA

11:33 AM CST on December 16, 2017 (GMT -0600)
Ottumwa Industrial

Weather History for KOTM - December, 2014

Change the Weather History Date:

Tuesday, December 16, 2014

  Actual Average Record
Temperature  
Mean Temperature 30 °F 26 °F  
Max Temperature 41 °F 34 °F 67 °F (1939)
Min Temperature 19 °F 17 °F -19 °F (1932)
Degree Days  
Heating Degree Days 35 40  
Month to date heating degree days 512 592  
Since 1 July heating degree days 2020 1890  
Cooling Degree Days 0 0  
Month to date cooling degree days 0 0  
Year to date cooling degree days 801 938  
Moisture  
Dew Point 22 °F    
Average Humidity 79    
Maximum Humidity 89    
Minimum Humidity 68    
Precipitation  
Precipitation 0.04 in 0.04 in 0.86 in (1940)
Month to date precipitation 0.57 0.81  
Year to date precipitation 40.70 36.51  
Sea Level Pressure  
Sea Level Pressure 30.11 in    
Wind  
Wind Speed 19 mph (NW)    
Max Wind Speed 30 mph    
Max Gust Speed 41 mph    
Visibility 10 miles    
Events Rain    
T = Trace of Precipitation, MM = Missing Value Source: NWS Daily Summary

Daily Weather History Graph

Daily Weather History Graph

Search for Another Location

Airport or City:

Trip Planner

Search our weather history database for the weather conditions in past years. The results will help you decide how hot, cold, wet, or windy it might be!

Date:

Astronomy

Dec. 16, 2014 Rise Set
Actual Time 7:28 AM CST 4:42 PM CST
Civil Twilight 6:57 AM CST 5:13 PM CST
Nautical Twilight 6:22 AM CST 5:48 PM CST
Astronomical Twilight 5:49 AM CST 6:21 PM CST
Moon 1:41 AM CST 1:15 PM CST
Length of Visible Light 10h 16m
Length of Day
9h 13m
Waning Crescent, 29% of the Moon is Illuminated
Dec 16
Waning Crescent
Dec 21
New
Dec 28
First Quarter
Jan 4
Full
Jan 13
Last Quarter

Hourly Weather History & Observations

Time (CST) Temp. Windchill Dew Point Humidity Pressure Visibility Wind Dir Wind Speed Gust Speed Precip Events Conditions
12:53 AM 39.0 °F 29.0 °F 36.0 °F 89% 29.73 in 10.0 mi NW 20.7 mph 36.8 mph 0.00 in Rain Light Rain
1:53 AM 36.0 °F 24.7 °F 33.1 °F 89% 29.78 in 5.0 mi NW 21.9 mph 32.2 mph 0.03 in   Overcast
2:53 AM 33.1 °F 20.9 °F 30.9 °F 92% 29.83 in 10.0 mi WNW 21.9 mph 29.9 mph 0.00 in Rain Light Rain
3:53 AM 30.9 °F 19.4 °F 28.0 °F 89% 29.87 in 7.0 mi WNW 17.3 mph 32.2 mph 0.01 in Rain Light Freezing Rain
4:13 AM 30.9 °F 16.7 °F 28.0 °F 89% 29.87 in 9.0 mi WNW 27.6 mph 35.7 mph 0.00 in Rain Light Freezing Rain
4:25 AM 30.9 °F 18.4 °F 28.0 °F 89% 29.87 in 9.0 mi WNW 20.7 mph 29.9 mph 0.00 in   Overcast
4:53 AM 30.0 °F 16.6 °F 27.0 °F 88% 29.91 in 10.0 mi WNW 23.0 mph 31.1 mph 0.00 in   Overcast
5:53 AM 28.9 °F 15.1 °F 25.0 °F 85% 29.95 in 10.0 mi WNW 23.0 mph 33.4 mph N/A   Overcast
6:53 AM 28.0 °F 14.3 °F 24.1 °F 85% 29.99 in 10.0 mi NW 21.9 mph 33.4 mph N/A   Overcast
7:45 AM 27.0 °F 12.2 °F 21.9 °F 81% 30.01 in 10.0 mi NW 24.2 mph 34.5 mph N/A   Overcast
7:53 AM 27.0 °F 12.8 °F 21.9 °F 81% 30.02 in 10.0 mi NW 21.9 mph 31.1 mph N/A   Overcast
8:53 AM 26.1 °F 11.3 °F 21.0 °F 81% 30.08 in 10.0 mi NW 23.0 mph 35.7 mph N/A   Overcast
9:53 AM 26.1 °F 12.7 °F 21.0 °F 81% 30.11 in 10.0 mi NW 18.4 mph 28.8 mph N/A   Overcast
10:53 AM 26.1 °F 11.6 °F 19.9 °F 78% 30.14 in 10.0 mi WNW 21.9 mph 34.5 mph N/A   Overcast
11:53 AM 27.0 °F 12.8 °F 19.9 °F 75% 30.14 in 10.0 mi NW 21.9 mph 34.5 mph N/A   Overcast
12:53 PM 26.1 °F 12.0 °F 19.9 °F 78% 30.15 in 10.0 mi WNW 20.7 mph 28.8 mph N/A   Overcast
1:14 PM 26.1 °F 11.0 °F 19.9 °F 78% 30.12 in 10.0 mi NW 24.2 mph 28.8 mph N/A   Overcast
1:53 PM 25.0 °F 10.9 °F 19.0 °F 78% 30.19 in 10.0 mi NW 19.6 mph - N/A   Overcast
2:09 PM 24.8 °F 10.7 °F 19.4 °F 80% 30.16 in 10.0 mi WNW 19.6 mph 25.3 mph N/A   Overcast
2:53 PM 26.1 °F 12.0 °F 19.0 °F 75% 30.21 in 10.0 mi WNW 20.7 mph 25.3 mph N/A   Overcast
3:53 PM 26.1 °F 13.1 °F 18.0 °F 71% 30.23 in 10.0 mi NW 17.3 mph - N/A   Overcast
4:45 PM 24.1 °F 12.0 °F 18.0 °F 77% 30.22 in 10.0 mi NW 13.8 mph - N/A   Scattered Clouds
4:53 PM 24.1 °F 11.5 °F 18.0 °F 77% 30.26 in 10.0 mi NW 15.0 mph 20.7 mph N/A   Scattered Clouds
5:01 PM 25.0 °F 13.1 °F 18.0 °F 75% 30.23 in 10.0 mi NW 13.8 mph - N/A   Mostly Cloudy
5:53 PM 25.0 °F 14.8 °F 18.0 °F 75% 30.28 in 10.0 mi NW 10.4 mph - N/A   Overcast
6:53 PM 24.1 °F 9.4 °F 17.1 °F 75% 30.31 in 10.0 mi NW 20.7 mph 26.5 mph N/A   Overcast
7:53 PM 24.1 °F 11.0 °F 17.1 °F 75% 30.32 in 10.0 mi NW 16.1 mph - N/A   Overcast
8:53 PM 23.0 °F 9.6 °F 17.1 °F 78% 30.32 in 10.0 mi NW 16.1 mph - N/A   Overcast
9:53 PM 23.0 °F 10.6 °F 16.0 °F 74% 30.32 in 10.0 mi NNW 13.8 mph - N/A   Overcast
10:53 PM 21.0 °F 7.6 °F 14.0 °F 74% 30.33 in 10.0 mi NNW 15.0 mph - N/A   Overcast
11:53 PM 19.0 °F 5.0 °F 12.9 °F 77% 30.34 in 10.0 mi NNW 15.0 mph - N/A   Overcast